TimePST,TemperatureF,Dew PointF,Humidity,Sea Level PressureIn,VisibilityMPH,Wind Direction,Wind SpeedMPH,Gust SpeedMPH,PrecipitationIn,Events,Conditions,WindDirDegrees,DateUTC
12:15 AM,46.4,28.4,50,30.04,10.0,Calm,Calm,-,N/A,,Unknown,0,2013-02-05 08:15:00
12:35 AM,42.8,26.6,53,30.04,10.0,NNE,3.5,-,N/A,,Unknown,30,2013-02-05 08:35:00
12:55 AM,42.8,26.6,53,30.04,10.0,Calm,Calm,-,N/A,,Unknown,0,2013-02-05 08:55:00
1:15 AM,44.6,26.6,49,30.04,10.0,Calm,Calm,-,N/A,,Unknown,0,2013-02-05 09:15:00
1:35 AM,41.0,26.6,57,30.04,10.0,Calm,Calm,-,N/A,,Unknown,0,2013-02-05 09:35:00
1:55 AM,42.8,28.4,57,30.03,10.0,Calm,Calm,-,N/A,,Unknown,0,2013-02-05 09:55:00
2:15 AM,44.6,26.6,49,30.03,10.0,Calm,Calm,-,N/A,,Unknown,0,2013-02-05 10:15:00
2:35 AM,42.8,26.6,53,30.03,10.0,Calm,Calm,-,N/A,,Unknown,0,2013-02-05 10:35:00
2:55 AM,41.0,26.6,57,30.03,10.0,Calm,Calm,-,N/A,,Unknown,0,2013-02-05 10:55:00
3:15 AM,41.0,26.6,57,30.03,10.0,Calm,Calm,-,N/A,,Unknown,0,2013-02-05 11:15:00
3:35 AM,41.0,28.4,61,30.03,10.0,Calm,Calm,-,N/A,,Unknown,0,2013-02-05 11:35:00
3:55 AM,41.0,26.6,57,30.03,10.0,Calm,Calm,-,N/A,,Unknown,0,2013-02-05 11:55:00
4:15 AM,42.8,26.6,53,30.03,10.0,Calm,Calm,-,N/A,,Unknown,0,2013-02-05 12:15:00
4:35 AM,44.6,24.8,46,30.03,10.0,Calm,Calm,-,N/A,,Unknown,0,2013-02-05 12:35:00
4:55 AM,39.2,26.6,61,30.04,10.0,Calm,Calm,-,N/A,,Unknown,0,2013-02-05 12:55:00
5:15 AM,37.4,26.6,65,30.04,10.0,Calm,Calm,-,N/A,,Unknown,0,2013-02-05 13:15:00
5:35 AM,37.4,26.6,65,30.03,10.0,Calm,Calm,-,N/A,,Unknown,0,2013-02-05 13:35:00
5:55 AM,39.2,26.6,61,30.03,10.0,Calm,Calm,-,N/A,,Unknown,0,2013-02-05 13:55:00
6:15 AM,39.2,26.6,61,30.03,10.0,Calm,Calm,-,N/A,,Unknown,0,2013-02-05 14:15:00
6:35 AM,37.4,26.6,65,30.04,10.0,Calm,Calm,-,N/A,,Unknown,0,2013-02-05 14:35:00
6:55 AM,41.0,24.8,53,30.04,10.0,Calm,Calm,-,N/A,,Unknown,0,2013-02-05 14:55:00
7:15 AM,44.6,26.6,49,30.04,10.0,Calm,Calm,-,N/A,,Unknown,0,2013-02-05 15:15:00
8:15 AM,44.6,28.4,53,30.06,10.0,Calm,Calm,-,N/A,,Unknown,0,2013-02-05 16:15:00
8:35 AM,46.4,28.4,50,30.06,10.0,Calm,Calm,-,N/A,,Unknown,0,2013-02-05 16:35:00
8:55 AM,48.2,26.6,43,30.06,10.0,Calm,Calm,-,N/A,,Unknown,0,2013-02-05 16:55:00
9:15 AM,53.6,26.6,35,30.06,10.0,Calm,Calm,-,N/A,,Unknown,0,2013-02-05 17:15:00
9:35 AM,53.6,26.6,35,30.06,10.0,Calm,Calm,-,N/A,,Unknown,0,2013-02-05 17:35:00
9:55 AM,55.4,26.6,33,30.06,10.0,Calm,Calm,-,N/A,,Unknown,0,2013-02-05 17:55:00
10:15 AM,57.2,26.6,31,30.05,10.0,Calm,Calm,-,N/A,,Unknown,0,2013-02-05 18:15:00
10:35 AM,59.0,26.6,29,30.05,10.0,NE,4.6,-,N/A,,Unknown,50,2013-02-05 18:35:00
10:55 AM,59.0,26.6,29,30.04,10.0,NE,6.9,-,N/A,,Unknown,50,2013-02-05 18:55:00
11:15 AM,60.8,24.8,25,30.03,10.0,NE,5.8,-,N/A,,Unknown,40,2013-02-05 19:15:00
11:35 AM,62.6,24.8,24,30.02,10.0,NE,6.9,-,N/A,,Unknown,40,2013-02-05 19:35:00
11:55 AM,62.6,26.6,26,30.01,10.0,Calm,Calm,-,N/A,,Unknown,0,2013-02-05 19:55:00
12:15 PM,64.4,26.6,24,29.99,10.0,East,3.5,-,N/A,,Unknown,100,2013-02-05 20:15:00
12:35 PM,64.4,24.8,22,29.98,10.0,East,3.5,-,N/A,,Unknown,90,2013-02-05 20:35:00
12:55 PM,64.4,24.8,22,29.97,10.0,NE,5.8,-,N/A,,Unknown,40,2013-02-05 20:55:00
1:15 PM,64.4,24.8,22,29.96,10.0,ENE,4.6,-,N/A,,Unknown,60,2013-02-05 21:15:00
1:35 PM,66.2,24.8,21,29.95,10.0,Calm,Calm,-,N/A,,Unknown,0,2013-02-05 21:35:00
1:55 PM,66.2,23.0,19,29.94,10.0,East,5.8,-,N/A,,Unknown,90,2013-02-05 21:55:00
2:15 PM,66.2,23.0,19,29.94,10.0,Calm,Calm,-,N/A,,Unknown,0,2013-02-05 22:15:00
2:35 PM,66.2,23.0,19,29.93,10.0,Calm,Calm,-,N/A,,Unknown,0,2013-02-05 22:35:00
2:55 PM,66.2,24.8,21,29.92,10.0,Calm,Calm,-,N/A,,Unknown,0,2013-02-05 22:55:00
3:15 PM,68.0,24.8,20,29.92,10.0,ESE,8.1,-,N/A,,Unknown,110,2013-02-05 23:15:00
3:35 PM,68.0,24.8,20,29.91,10.0,East,8.1,-,N/A,,Unknown,100,2013-02-05 23:35:00
3:55 PM,68.0,23.0,18,29.90,10.0,SE,11.5,-,N/A,,Unknown,130,2013-02-05 23:55:00
4:15 PM,66.2,24.8,21,29.90,10.0,East,9.2,-,N/A,,Unknown,100,2013-02-06 00:15:00
4:35 PM,66.2,24.8,21,29.89,10.0,ESE,9.2,-,N/A,,Unknown,110,2013-02-06 00:35:00
4:55 PM,64.4,24.8,22,29.89,10.0,ESE,6.9,-,N/A,,Unknown,110,2013-02-06 00:55:00
5:15 PM,62.6,24.8,24,29.90,10.0,ESE,5.8,-,N/A,,Unknown,110,2013-02-06 01:15:00
6:15 PM,62.6,24.8,24,29.89,10.0,ESE,8.1,-,N/A,,Unknown,120,2013-02-06 02:15:00
6:35 PM,60.8,23.0,23,29.89,10.0,SE,8.1,-,N/A,,Unknown,130,2013-02-06 02:35:00
6:55 PM,60.8,24.8,25,29.90,10.0,SSE,6.9,-,N/A,,Unknown,150,2013-02-06 02:55:00
7:15 PM,59.0,24.8,27,29.90,10.0,Calm,Calm,-,N/A,,Unknown,0,2013-02-06 03:15:00
7:35 PM,59.0,24.8,27,29.89,10.0,SSE,6.9,-,N/A,,Unknown,150,2013-02-06 03:35:00
7:55 PM,59.0,24.8,27,29.89,10.0,Calm,Calm,-,N/A,,Unknown,0,2013-02-06 03:55:00
8:15 PM,60.8,24.8,25,29.89,10.0,SE,4.6,-,N/A,,Unknown,140,2013-02-06 04:15:00
8:35 PM,59.0,24.8,27,29.89,10.0,Calm,Calm,-,N/A,,Unknown,0,2013-02-06 04:35:00
8:55 PM,59.0,24.8,27,29.89,10.0,SE,4.6,-,N/A,,Unknown,130,2013-02-06 04:55:00
9:15 PM,59.0,26.6,29,29.89,10.0,SE,4.6,-,N/A,,Unknown,130,2013-02-06 05:15:00
9:35 PM,59.0,26.6,29,29.89,10.0,Calm,Calm,-,N/A,,Unknown,0,2013-02-06 05:35:00
9:55 PM,55.4,30.2,38,29.89,10.0,Calm,Calm,-,N/A,,Unknown,0,2013-02-06 05:55:00
10:15 PM,57.2,26.6,31,29.89,10.0,Calm,Calm,-,N/A,,Unknown,0,2013-02-06 06:15:00
10:35 PM,59.0,26.6,29,29.88,10.0,SE,3.5,-,N/A,,Unknown,140,2013-02-06 06:35:00
10:55 PM,57.2,26.6,31,29.88,10.0,Calm,Calm,-,N/A,,Unknown,0,2013-02-06 06:55:00
11:35 PM,57.2,26.6,31,29.88,10.0,Calm,Calm,-,N/A,,Unknown,0,2013-02-06 07:35:00
11:55 PM,57.2,26.6,31,29.88,10.0,SE,3.5,-,N/A,,Unknown,130,2013-02-06 07:55:00